Location: Marcé
(47.5801°N, 0.3280°W)
Time: 20:27:57
(UTC+01:00)

Altair - Pass Details

Date: 11 December 2021
Orbit: 1501 x 1683 km, 47.2° (Epoch: 20 January)

Event Time Altitude Azimuth Distance (km) Brightness Sun altitude
Rises 21:38:42 0° 290° (WNW) 4,686 10.8 -44.1°
Reaches altitude 10° 21:42:20 10° 279° (W) 3,681 10.1 -44.7°
Enters shadow 21:49:34 27° 227° (SW) 2,570 8.7 -45.9°
Maximum altitude 21:49:35 27° 227° (SW) 2,570 - -45.9°
Drops below altitude 10° 21:56:47 10° 174° (S) 3,644 - -47.0°
Sets 22:00:23 0° 163° (SSE) 4,629 - -47.6°
